Location: Ku?niki
(51.4449°N, 17.8974°E)
Time: 03:37:28
(UTC+00:00)

Cosmos 1975 Rocket - Pass Details

Date: 18 September 2020
Orbit: 603 x 634 km, 82.5° (Epoch: 22 October)

Event Time Altitude Azimuth Distance (km) Brightness Sun altitude
Rises 17:26:54 0° 351° (N) 2,887 6.8 -5.7°
Reaches altitude 10° 17:29:10 10° 355° (N) 1,973 5.9 -6.1°
Maximum altitude 17:33:30 64° 77° (ENE) 677 3.0 -6.8°
Drops below altitude 10° 17:37:46 10° 159° (SSE) 1,947 5.3 -7.4°
Sets 17:39:59 0° 163° (SSE) 2,845 6.2 -7.8°
